Wind_Speed
20 21 20 18 17 17 17 16 15 15 15 16 17 18 19 19 21 24 25 25 27 29 31 31 31 31 31 32 33 34 34 33 31 32 32 31 31 31 31 30 29 29 29 29 28 28 27 26 25 25 25 27 28 29 30 31 32 32 32 32 33 34 34 34 34 34 35 38 38 36 37 39 39 39 41 41 41 41 41 41 42 42 41 40 40
21 22 19 17 17 16 16 15 15 15 16 17 18 17 17 18 20 22 23 23 25 27 29 30 30 30 30 31 32 33 34 34 34 36 36 34 33 33 33 31 31 31 31 31 30 29 28 27 28 27 28 29 29 30 31 32 32 33 33 33 35 36 37 38 39 39 38 39 39 38 38 39 39 39 40 42 43 44 44 45 45 45 45 45 44
20 20 18 17 17 16 15 15 16 17 17 18 17 16 16 18 19 21 23 23 24 26 27 28 27 28 28 29 29 30 31 32 35 37 38 36 34 33 32 31 31 32 32 31 30 29 29 29 30 30 30 30 30 30 31 32 32 33 33 34 35 36 37 38 40 42 41 40 40 41 41 41 40 40 40 42 44 45 46 46 46 46 46 45 45
18 18 17 17 17 16 16 16 17 17 18 18 17 15 16 18 20 22 25 25 25 27 28 27 26 26 27 27 29 30 30 30 31 34 36 35 34 33 32 30 31 31 31 31 31 30 30 30 31 32 32 31 31 31 32 32 33 33 33 34 36 37 38 40 41 43 45 44 42 43 44 43 41 40 39 41 43 45 47 47 46 45 45 45 45
16 17 17 17 17 16 17 17 17 17 18 18 17 16 17 19 22 25 27 26 26 27 28 28 26 26 28 29 30 31 31 30 29 30 32 33 33 34 33 31 30 30 30 31 32 31 31 31 32 33 33 32 31 31 32 33 33 34 34 35 37 38 39 41 43 46 49 49 45 44 45 44 41 39 38 40 41 43 45 46 46 45 44 43 44
16 17 18 17 18 18 18 18 18 18 17 17 16 17 18 20 22 25 27 28 28 28 29 29 28 28 30 30 32 33 33 32 31 31 31 30 31 34 34 32 31 30 30 31 32 33 32 32 33 35 34 32 32 32 32 33 34 35 36 36 38 39 40 42 45 49 52 52 47 45 44 41 39 38 38 40 41 43 45 46 47 47 46 45 44
16 18 19 18 18 18 17 16 16 16 16 16 17 19 19 21 23 25 26 28 29 30 30 31 30 31 32 32 33 34 34 34 32 31 31 29 29 31 33 32 31 30 30 30 32 33 33 32 34 35 35 34 33 33 33 33 35 36 37 37 38 39 41 43 47 52 54 52 48 45 41 38 38 40 41 42 44 45 46 47 47 47 48 47 46
16 17 19 18 17 16 15 14 14 15 15 17 20 21 20 21 24 26 28 29 30 30 31 31 32 34 34 35 36 35 34 34 33 33 32 30 28 29 31 32 31 30 29 29 31 32 32 33 35 36 35 35 35 36 35 35 36 37 38 39 40 40 42 45 50 54 54 51 48 45 41 40 42 44 44 45 46 47 47 48 48 47 48 48 49
17 18 18 18 16 15 15 15 15 15 16 18 20 22 22 23 25 27 30 31 32 32 32 32 33 35 37 38 38 36 35 34 33 34 35 33 29 28 30 32 31 29 29 30 32 32 32 34 36 36 35 35 37 37 37 37 37 38 39 40 41 42 43 47 53 54 53 50 47 44 43 44 45 46 46 47 48 49 50 50 49 49 49 50 51
17 17 16 16 16 15 15 15 15 16 16 17 19 21 23 25 27 30 32 34 35 35 34 34 34 36 38 40 41 38 35 34 35 36 37 35 31 29 31 33 31 30 31 32 33 32 33 35 36 35 35 36 37 38 38 38 39 40 40 41 42 43 45 50 54 54 51 48 46 45 45 45 46 47 47 48 50 51 51 51 50 50 50 50 49
16 16 15 15 15 14 14 15 16 18 19 19 20 22 24 27 29 32 34 37 38 39 38 38 37 37 38 41 42 39 35 35 37 38 39 38 35 31 31 32 32 31 31 31 31 31 32 33 34 35 35 36 38 39 39 39 40 41 41 42 43 45 48 51 54 54 50 47 46 45 45 45 47 47 48 49 51 51 51 50 50 49 48 48 48
16 16 15 14 14 14 16 17 18 20 22 24 25 26 27 29 31 34 36 39 40 41 41 40 40 40 39 39 40 38 35 35 37 38 40 41 38 35 33 32 31 28 28 29 29 30 31 32 33 35 36 37 39 39 39 40 41 42 43 44 45 48 50 53 55 53 50 47 45 44 45 46 47 47 48 50 50 49 49 49 48 47 46 46 47
17 17 16 15 16 18 20 21 22 23 25 27 28 29 30 32 33 36 38 40 42 43 43 42 41 41 40 38 38 36 35 36 37 39 41 41 40 38 34 30 26 25 26 28 29 30 31 32 34 36 37 40 40 39 39 39 39 42 46 47 47 50 52 53 54 52 49 47 45 44 45 47 47 47 48 49 49 48 48 47 46 45 45 46 47
19 19 19 19 20 22 23 24 25 26 28 29 30 32 33 34 36 38 40 42 43 44 44 42 41 42 41 38 37 35 35 38 39 40 41 41 41 39 35 28 24 24 27 28 30 32 33 33 34 36 38 41 41 40 38 36 37 41 47 48 48 50 52 52 53 51 48 47 46 45 46 47 47 48 47 47 47 47 46 46 45 45 45 46 47
21 22 23 24 24 25 26 27 28 29 30 32 33 34 36 37 39 40 41 43 44 44 44 43 42 43 42 39 37 36 35 38 39 40 42 43 41 40 37 31 27 26 28 29 31 33 34 34 35 37 39 41 41 38 36 34 35 41 47 50 52 54 53 52 51 50 48 47 47 47 47 48 49 48 47 47 47 46 46 46 46 45 46 46 46
23 25 26 27 28 29 29 30 31 32 33 35 36 38 39 40 41 42 44 45 45 43 44 44 45 46 44 40 38 37 36 36 37 39 43 44 42 40 39 35 31 30 30 31 33 35 35 35 35 37 40 41 40 37 35 35 38 44 48 50 52 53 52 50 48 47 47 49 50 49 49 50 50 49 47 46 45 45 46 46 45 45 47 46 45
27 28 29 30 31 31 31 32 33 35 36 38 40 41 42 43 44 45 46 47 45 44 44 46 48 48 45 39 37 37 36 35 36 40 43 45 43 42 41 39 36 34 34 34 36 37 36 35 37 38 40 41 39 36 35 38 43 47 49 50 50 50 48 47 47 47 48 51 51 50 50 50 49 47 46 45 44 45 46 45 44 45 46 46 45
30 31 32 33 33 33 33 34 36 38 39 42 44 44 45 47 48 48 48 47 46 46 47 49 50 47 42 38 37 37 37 37 37 40 44 45 45 44 45 43 40 39 39 39 39 41 41 40 41 40 40 41 39 36 37 42 47 49 49 48 48 47 46 46 47 48 50 51 51 50 50 48 46 45 43 44 44 45 46 45 44 45 46 46 45
34 34 36 36 36 35 36 37 39 41 43 45 46 46 48 50 51 51 51 49 47 48 49 48 44 38 36 37 37 37 39 38 38 41 44 45 45 46 48 48 44 40 39 41 43 45 45 45 45 44 41 40 39 39 42 47 49 49 48 47 46 45 46 47 50 51 52 52 51 52 51 48 45 43 42 43 44 44 44 44 44 45 45 45 44
38 39 41 40 39 38 39 39 41 43 46 48 48 48 50 52 52 53 53 50 49 51 49 42 35 31 32 35 36 37 39 39 39 40 41 42 45 48 49 48 43 39 38 40 43 45 46 48 49 45 40 39 40 43 45 47 48 48 47 46 46 47 48 50 53 53 53 53 51 50 49 46 44 43 43 43 43 42 42 43 43 43 44 43 43
43 45 45 43 42 41 40 40 42 45 47 49 50 51 53 54 54 53 51 50 51 50 44 35 29 28 32 34 36 37 37 36 36 37 38 40 44 45 44 42 39 38 38 39 41 44 47 49 47 42 40 43 45 45 46 46 47 47 46 46 47 49 51 53 54 53 52 50 49 47 44 43 43 42 43 43 42 42 43 42 42 43 43 42 42
48 50 48 46 45 42 40 40 43 45 47 49 51 53 54 54 54 52 51 52 51 46 39 33 30 30 32 35 35 35 34 33 33 35 38 40 39 38 38 39 39 39 39 41 45 46 44 43 42 43 45 47 46 46 46 46 46 46 46 48 50 52 54 54 53 51 49 47 45 43 42 42 42 42 42 42 42 42 42 42 42 42 41 41 41
51 53 53 50 44 39 40 42 44 45 46 48 49 50 51 52 51 51 52 51 47 41 36 34 34 33 34 34 34 35 36 35 33 35 39 40 36 35 36 37 37 39 41 45 46 43 40 42 45 47 48 47 47 46 46 45 45 46 48 51 53 54 54 53 51 49 46 44 43 41 41 41 42 42 42 41 40 40 40 41 41 40 39 39 39
52 53 54 50 42 39 41 44 43 44 45 46 46 46 48 49 49 49 48 45 42 38 36 35 37 36 35 34 34 36 37 35 34 36 40 38 33 31 33 34 35 38 42 44 43 41 42 47 48 48 47 47 47 46 45 46 48 49 51 53 53 53 52 50 48 46 44 42 41 40 40 41 42 42 42 40 39 39 39 40 39 38 37 37 37
56 56 54 48 42 40 42 44 43 44 44 44 45 45 46 48 49 47 43 40 39 39 36 35 37 38 37 37 36 36 36 36 37 38 37 34 31 31 33 35 38 41 43 43 42 44 48 49 48 47 48 47 47 47 47 49 50 51 52 53 52 51 49 47 45 43 41 40 40 40 41 41 41 41 40 39 38 38 38 39 37 35 35 35 34
57 54 47 42 40 40 42 44 44 44 44 44 45 46 47 49 49 46 43 40 39 38 37 36 37 38 39 38 37 37 38 37 36 33 31 32 34 35 37 39 41 42 42 43 45 48 50 49 47 47 47 47 48 49 50 51 51 52 52 51 50 49 47 44 42 40 39 39 39 40 41 41 40 39 38 38 37 37 38 37 35 33 33 33 31
46 42 38 37 39 41 42 44 45 45 45 45 46 47 49 49 48 46 44 42 40 39 38 38 39 40 39 38 38 38 36 32 30 29 30 34 37 39 39 41 42 42 43 46 49 49 48 48 48 48 49 50 51 51 50 51 52 51 50 48 47 45 43 41 39 38 38 38 39 40 40 39 38 38 37 37 37 36 36 34 31 31 31 31 29
36 35 36 37 40 41 42 45 46 46 46 47 48 49 49 49 48 47 45 43 42 40 38 38 39 39 38 38 38 35 31 29 30 31 33 35 37 37 38 40 41 44 46 49 49 48 48 47 48 50 51 52 51 50 50 51 50 50 48 45 43 41 39 38 37 37 38 38 39 39 38 37 36 36 36 36 35 34 32 30 29 29 30 29 27
37 37 37 38 40 43 45 46 47 47 47 48 49 49 49 49 48 47 46 44 42 39 38 38 38 38 38 36 32 31 30 32 33 33 34 36 36 36 38 41 44 46 48 49 49 48 48 48 49 51 52 51 50 50 50 50 49 47 44 41 39 37 37 36 36 37 37 38 37 36 35 35 35 35 35 34 32 30 29 28 28 28 28 27 27
40 40 40 41 43 45 47 48 49 49 48 49 49 49 49 49 48 47 46 44 42 40 40 39 39 40 39 33 28 30 36 40 38 37 37 38 38 38 40 43 45 47 48 48 49 48 49 50 51 51 50 49 49 50 50 49 47 44 41 38 36 36 36 36 37 38 38 37 36 34 34 33 33 33 33 31 29 28 28 27 27 27 27 26 26
42 42 43 45 46 48 48 49 50 49 48 49 49 49 48 48 47 46 44 43 42 43 42 39 37 37 36 33 31 37 44 44 41 40 40 40 41 42 43 44 46 47 47 48 48 47 48 49 50 50 49 49 49 48 47 46 44 41 38 36 36 37 37 37 37 37 37 36 34 33 33 32 32 31 30 28 27 26 27 27 26 26 26 25 25
44 45 46 48 50 50 50 50 49 49 49 49 49 48 47 46 45 45 44 43 43 43 42 40 36 33 33 36 41 45 46 44 42 41 40 41 42 44 44 45 46 46 47 46 46 46 47 48 49 49 49 48 48 46 45 43 40 37 37 37 37 38 38 37 37 36 35 34 33 33 32 31 30 29 28 26 25 25 25 25 25 25 25 25 25
46 47 48 51 52 52 51 50 50 49 50 49 49 48 47 45 44 43 43 44 45 45 44 43 41 37 38 42 45 46 44 44 43 41 40 42 44 45 45 45 46 46 45 45 45 46 47 47 48 48 47 46 45 43 41 38 37 36 37 38 39 39 38 37 36 35 34 33 32 32 31 30 29 28 27 26 25 25 25 25 25 25 25 24 24
48 49 51 52 53 52 51 51 51 50 50 49 49 47 45 43 42 43 44 45 46 47 46 45 44 42 42 43 44 44 44 43 42 42 43 45 45 46 45 45 45 45 45 44 45 45 46 46 47 47 45 44 42 39 38 37 37 37 38 38 38 38 37 36 35 33 33 33 32 31 30 29 28 27 26 26 26 26 26 26 25 25 25 24 24
49 51 52 52 52 52 51 51 51 50 49 48 46 44 43 42 43 45 46 46 46 47 46 45 44 44 43 44 44 44 44 44 44 45 46 47 46 45 45 44 44 44 44 44 44 44 45 46 45 44 42 40 38 37 37 38 38 38 38 37 37 36 36 35 34 32 32 31 31 30 29 28 27 26 26 25 26 26 26 27 26 25 25 24 24
52 52 52 52 51 51 51 51 49 48 46 45 43 43 44 45 45 46 46 46 45 45 45 44 44 44 44 44 44 44 44 46 47 48 48 46 45 44 43 44 44 44 43 43 42 43 44 44 43 41 38 37 36 37 37 38 38 38 38 37 36 35 34 33 32 31 30 30 29 28 27 26 26 25 25 25 25 25 25 26 25 25 25 25 24
52 51 50 50 50 50 49 48 47 45 44 44 44 45 46 46 46 46 45 45 45 44 43 43 43 43 43 44 44 45 46 48 48 47 46 44 43 42 42 43 44 44 43 42 41 41 42 41 39 37 36 36 37 37 38 38 38 37 37 35 35 34 33 32 30 30 29 28 27 26 25 25 24 24 24 24 23 23 24 24 24 25 25 24 24
49 49 49 49 48 47 47 46 45 44 45 45 46 46 46 46 46 45 44 43 43 42 42 42 43 43 44 44 45 46 46 46 45 44 42 41 41 41 42 42 42 42 42 41 40 39 39 37 36 35 36 37 38 38 38 38 37 36 35 34 33 32 31 30 29 28 28 26 25 24 24 23 23 23 23 22 22 22 22 22 23 23 24 24 24
48 48 48 46 45 45 45 44 45 45 46 46 46 46 45 45 44 43 41 41 41 42 43 44 44 45 44 44 43 43 43 43 42 41 40 40 40 41 41 41 41 41 40 39 37 36 36 35 35 35 36 37 37 37 36 36 35 34 33 32 31 29 29 28 27 27 25 24 23 23 23 23 23 23 22 22 21 21 21 22 22 23 23 24 24
46 46 44 43 43 43 44 45 46 46 46 46 45 44 44 43 42 41 42 43 44 45 45 45 45 44 43 41 41 41 40 40 39 39 39 39 40 40 40 40 39 38 36 35 35 34 34 34 35 35 35 34 34 34 34 33 33 32 30 29 28 28 27 26 25 24 23 22 22 22 22 22 22 22 22 21 21 20 21 21 22 22 23 23 24
43 42 42 42 43 44 45 46 46 46 45 44 43 42 42 43 43 44 45 46 46 46 45 44 44 42 40 38 37 37 37 38 38 39 38 38 38 38 38 36 35 35 34 32 32 32 34 35 35 33 31 31 32 33 33 32 31 30 28 26 26 26 25 24 23 22 21 21 21 22 22 22 22 22 22 21 21 21 21 21 22 22 23 23 24
41 42 42 43 44 44 45 45 44 43 43 43 43 43 43 44 45 45 46 46 45 43 42 41 39 36 34 33 34 36 37 38 39 39 38 36 35 35 34 33 32 31 31 31 32 32 32 32 31 30 30 31 31 32 31 30 28 27 26 25 24 24 23 23 22 21 21 21 21 22 22 23 23 23 22 22 22 22 22 22 22 23 23 23 24
42 43 43 43 43 43 43 43 43 43 43 43 43 43 43 43 44 44 44 43 41 39 37 36 34 33 32 35 37 38 39 39 38 37 35 33 32 31 31 30 29 29 30 31 32 31 29 29 28 29 29 29 29 29 29 28 26 25 24 24 23 23 22 22 21 21 21 21 21 22 23 23 23 23 23 23 23 22 23 23 23 23 23 24 24
42 42 42 42 42 41 42 42 42 42 42 42 42 42 41 41 42 41 40 39 38 36 35 36 37 36 36 37 38 38 37 36 35 33 31 31 30 29 28 27 27 28 29 29 28 27 26 26 26 26 26 25 25 26 27 27 26 25 24 23 23 22 22 21 21 21 21 21 22 22 23 23 23 24 23 23 24 23 23 23 23 23 24 24 24
41 41 40 40 40 41 41 41 40 40 40 40 39 39 39 39 39 38 38 37 37 37 37 38 38 37 35 35 35 35 34 34 33 31 30 29 29 28 27 27 27 27 27 25 24 24 24 24 24 23 23 22 23 24 25 26 25 25 24 24 23 23 22 22 22 22 22 22 22 23 23 23 23 24 24 24 24 24 24 24 24 24 24 24 25
39 39 39 39 40 40 39 38 37 37 37 36 35 35 36 36 36 37 37 37 38 37 37 37 35 33 32 33 33 33 33 32 32 31 29 28 27 27 26 26 26 25 23 22 22 22 22 22 22 21 21 21 21 21 22 23 23 24 23 23 24 24 23 23 23 23 23 23 23 24 24 24 24 24 24 25 25 26 25 25 25 25 25 25 25
38 38 38 39 38 37 37 36 35 34 34 33 32 32 33 34 35 35 36 36 36 36 35 34 32 31 30 30 31 31 31 31 31 30 28 26 26 26 26 26 24 21 20 20 20 21 21 21 20 20 19 19 20 20 21 21 21 22 22 22 23 23 23 23 24 23 23 24 24 24 24 24 24 24 25 25 25 26 26 26 25 25 25 25 25
37 36 36 36 36 35 35 34 33 31 31 30 30 31 32 33 34 34 34 34 34 33 32 31 29 29 28 28 28 27 27 27 27 27 26 26 25 25 25 24 22 19 18 19 20 19 19 19 19 18 18 19 19 20 20 21 21 21 22 22 22 23 23 23 24 24 24 24 24 24 24 24 24 24 24 24 25 25 25 26 25 25 25 25 25
34 34 34 34 34 34 33 32 30 29 29 30 30 31 32 33 33 33 33 32 31 31 30 29 28 28 28 27 27 26 25 25 25 25 26 26 26 24 22 21 20 19 18 19 20 19 19 18 18 18 18 19 19 20 21 21 22 22 22 22 22 22 23 23 24 24 24 24 24 24 23 23 23 23 23 23 23 24 24 24 24 24 24 24 24
31 31 32 32 32 32 31 31 31 31 31 31 31 31 32 32 32 32 31 30 29 29 29 28 28 28 28 28 27 27 26 26 26 26 26 26 24 21 19 19 19 19 19 19 20 20 20 19 19 19 19 19 20 20 21 21 22 22 23 23 22 22 23 23 23 24 24 24 23 23 23 22 22 22 22 21 21 21 21 21 21 21 21 21 21
30 31 32 32 32 32 32 32 32 32 32 32 32 31 31 31 31 31 30 29 28 28 27 27 28 28 28 27 26 25 24 23 23 24 23 22 21 18 17 17 18 20 20 21 21 22 22 21 21 21 20 21 21 21 21 22 22 22 23 23 23 23 23 23 23 23 23 23 23 22 22 21 20 19 19 18 17 17 17 17 17 17 17 17 18
Wind_Direction
267 267 268 271 276 280 279 279 280 282 283 287 293 299 301 301 306 312 317 318 317 315 310 304 302 303 305 303 299 294 290 286 283 284 288 287 286 287 285 283 282 282 283 284 283 282 283 285 287 287 286 288 291 292 294 295 295 294 295 296 300 304 307 313 318 319 318 316 314 308 303 302 301 298 295 294 294 295 295 295 295 294 293 293 292
267 269 272 276 278 277 276 278 280 281 286 293 300 310 315 314 314 318 324 324 320 318 314 308 303 304 308 310 309 304 296 287 284 288 291 289 285 285 286 283 281 281 283 284 282 282 285 287 287 287 287 287 289 292 294 296 297 297 296 295 297 300 304 309 315 319 319 317 314 310 306 302 299 294 292 292 293 294 295 296 297 297 296 295 294
270 272 273 273 272 272 274 278 280 284 291 297 302 312 319 321 324 328 332 329 321 319 318 315 310 307 308 311 312 311 303 294 290 292 293 291 285 284 286 285 281 280 284 285 282 282 286 288 289 290 289 287 288 291 293 296 297 297 296 296 297 299 303 308 312 316 320 319 315 312 309 304 299 293 289 289 291 294 295 297 298 299 298 297 295
277 275 271 268 268 271 274 277 281 288 293 296 302 316 324 327 329 329 330 330 325 321 319 316 314 311 310 309 310 310 307 301 297 297 297 294 287 285 287 286 282 281 284 285 284 284 286 287 290 291 289 287 289 291 293 295 296 296 295 296 297 300 303 306 309 314 318 318 314 310 308 304 299 294 289 288 289 292 294 297 299 299 299 298 296
280 273 268 267 269 271 274 280 286 289 292 294 303 319 326 327 327 326 326 329 328 326 323 318 313 309 309 310 311 311 309 306 302 298 296 295 293 291 288 284 281 281 283 284 285 286 287 288 291 292 290 288 289 291 293 294 295 296 295 295 297 300 303 306 309 313 315 315 312 308 306 303 299 296 293 290 289 290 291 295 297 297 296 295 294
275 266 265 267 270 274 279 285 288 288 290 295 304 317 324 325 326 325 326 327 326 324 322 318 311 306 305 308 310 310 310 307 302 296 293 292 295 295 291 284 281 281 281 283 286 287 288 289 292 295 294 292 291 291 293 294 295 295 295 296 297 300 303 306 310 312 313 312 310 307 304 301 300 299 297 294 293 292 293 295 297 296 295 293 291
268 262 264 267 271 278 285 289 290 290 293 299 304 312 319 323 324 324 324 324 322 320 317 315 310 305 303 303 304 306 305 302 299 295 292 291 293 295 293 287 283 281 281 284 287 288 288 290 293 296 296 294 293 292 292 293 293 294 295 296 298 300 302 306 309 311 311 310 309 306 302 299 300 300 298 297 296 296 297 297 296 295 293 291 289
267 263 266 270 274 281 288 291 293 294 296 299 303 308 314 318 319 321 321 319 318 317 314 310 306 303 301 300 300 301 299 296 296 295 293 290 288 290 291 288 284 281 281 283 288 290 290 291 294 295 295 294 294 293 293 293 294 295 297 298 299 301 303 305 308 310 309 308 307 304 299 298 301 301 300 299 299 300 300 298 296 294 292 291 290
269 266 266 270 273 278 285 291 294 297 299 301 304 308 312 314 315 318 319 317 316 315 312 307 302 299 299 298 297 297 295 293 293 295 296 293 288 288 291 289 283 279 278 282 288 291 291 291 293 293 294 294 293 293 293 293 294 294 295 296 298 300 302 304 307 309 308 306 305 301 298 299 301 301 301 302 302 302 300 298 296 293 292 291 292
266 261 260 263 269 277 287 297 304 308 312 313 312 311 311 312 313 314 316 315 315 314 311 307 302 299 296 295 294 295 294 291 290 293 295 294 289 286 289 288 282 278 278 281 285 288 288 289 291 293 294 294 293 293 293 293 293 292 292 294 297 299 301 303 306 308 306 303 302 300 299 300 301 302 302 303 302 301 298 295 293 293 292 293 293
254 251 252 256 266 279 292 303 310 314 319 321 320 317 314 312 311 310 311 311 312 313 312 308 305 303 298 293 292 293 292 288 287 289 292 294 290 284 281 281 280 277 277 279 282 284 285 287 290 293 294 294 294 294 294 294 292 291 292 294 296 297 299 302 305 306 303 301 300 299 299 301 302 302 303 303 301 298 295 293 292 293 293 294 293
246 251 253 258 269 282 291 298 303 307 311 316 318 317 315 313 310 307 306 307 309 311 311 308 306 305 300 295 293 292 289 287 286 286 288 291 290 283 275 274 275 275 276 278 279 281 284 288 292 294 295 295 295 294 293 292 292 292 292 294 295 296 297 301 304 303 301 300 301 299 299 301 302 302 302 301 298 295 293 292 292 294 294 294 294
255 262 262 265 275 283 287 291 295 298 302 307 310 311 310 309 308 305 304 304 306 309 309 306 304 305 302 297 293 290 286 285 285 285 285 288 290 284 275 270 272 274 275 276 278 281 285 288 291 293 295 295 295 293 291 290 293 294 294 294 295 296 299 302 303 302 300 301 301 300 300 301 302 302 301 298 295 293 291 291 293 295 295 295 294
266 271 271 275 282 285 287 289 291 295 298 302 304 305 303 302 303 303 302 302 303 306 307 305 302 304 304 296 290 287 284 283 284 283 283 286 288 284 276 271 271 272 273 275 278 282 284 287 289 292 293 293 293 292 291 292 296 298 296 296 297 299 302 303 302 300 299 300 302 302 302 302 302 301 299 295 293 292 291 292 294 295 295 295 295
272 275 278 283 286 288 289 290 291 293 296 298 299 299 298 298 299 300 301 301 300 302 305 305 303 304 303 295 288 286 283 282 282 282 281 284 286 283 276 270 268 269 271 274 277 280 283 286 289 291 291 291 291 290 290 292 296 298 298 297 298 299 300 300 299 299 301 303 304 304 303 302 301 300 297 294 292 292 292 293 294 294 295 296 296
275 277 281 284 286 288 290 291 292 293 294 295 296 297 298 298 300 301 300 298 298 300 303 303 303 303 301 293 287 286 284 281 281 280 279 282 283 279 274 270 266 266 269 270 274 278 281 284 288 290 290 290 290 289 289 291 295 299 299 297 296 296 297 296 296 298 300 302 302 301 300 301 299 298 296 292 291 291 293 293 292 292 294 296 297
276 279 282 284 285 287 288 290 291 292 294 296 297 298 299 298 299 301 300 298 297 299 302 302 302 301 297 290 284 284 284 282 282 280 279 281 281 276 271 270 267 264 265 268 271 276 279 283 286 288 290 291 289 287 288 293 298 300 300 298 296 295 294 294 296 297 299 301 301 300 300 300 298 296 295 292 291 293 294 293 291 291 294 296 297
275 279 282 282 283 284 285 288 290 292 295 296 297 298 298 297 297 299 300 300 298 299 301 301 301 298 292 287 284 285 284 284 284 283 282 285 284 277 272 271 267 263 264 268 272 275 278 281 283 286 290 292 287 284 290 297 300 300 300 298 296 293 292 294 298 300 302 302 301 300 301 300 297 296 295 294 295 296 295 294 291 291 293 296 297
274 278 279 279 279 280 282 285 288 292 294 295 295 296 296 296 296 297 299 300 298 298 300 301 299 293 286 284 286 288 288 287 286 285 285 288 287 281 275 272 268 267 268 270 273 277 278 279 282 286 290 290 287 288 295 300 300 299 298 296 293 293 294 297 300 301 302 302 300 299 300 299 297 296 296 295 296 296 295 293 292 292 294 297 298
274 275 274 274 275 276 279 283 287 289 291 291 291 292 293 294 296 298 299 297 297 299 300 300 295 286 282 285 288 290 290 288 285 283 286 288 287 284 280 275 273 277 278 275 277 281 281 280 282 286 290 293 295 298 300 300 299 298 296 293 293 295 298 301 302 302 302 301 299 298 299 298 296 296 296 296 296 295 294 293 292 292 295 298 298
269 268 267 269 272 274 278 282 285 286 288 288 289 289 291 292 295 297 295 293 295 297 298 296 291 286 286 289 290 288 288 286 282 281 284 285 284 285 285 280 278 281 281 279 284 287 285 283 284 288 296 302 304 304 301 299 297 295 292 293 297 300 301 303 303 303 301 300 299 298 298 297 297 298 298 298 298 297 295 294 293 293 295 297 297
265 265 265 265 268 273 278 281 282 284 286 287 289 290 291 292 293 292 291 292 293 293 293 293 292 289 290 291 289 286 284 281 279 280 282 281 281 282 283 282 282 284 284 286 290 290 288 288 292 299 305 307 307 304 300 297 294 292 292 296 301 303 303 304 304 302 301 300 299 299 299 299 299 299 299 300 299 297 295 294 293 295 297 297 297
266 267 266 265 268 274 278 280 282 284 286 287 290 291 293 294 292 290 289 290 289 287 288 291 292 290 290 289 287 283 280 278 278 280 280 279 279 281 283 285 287 288 289 290 290 290 292 297 302 307 308 307 304 301 298 296 294 294 296 300 302 303 304 304 303 302 301 301 300 300 300 299 300 300 300 300 298 295 294 293 294 296 296 296 297
265 264 265 269 273 276 277 279 281 283 285 288 290 292 295 295 294 291 289 287 284 284 287 291 292 291 291 290 286 281 278 278 280 280 280 279 280 284 287 289 290 290 289 289 289 293 300 303 306 306 305 303 301 299 298 296 296 297 299 301 303 303 303 303 302 302 302 301 301 300 300 300 301 301 301 299 296 294 293 293 295 296 295 295 297
258 259 263 269 274 274 275 278 280 281 284 287 289 291 293 294 294 292 289 286 285 287 291 294 294 294 294 291 286 281 279 281 281 280 280 282 284 288 289 289 289 288 288 288 292 298 302 303 304 302 301 300 299 297 297 296 297 299 301 302 303 303 303 303 302 302 302 301 300 301 301 301 301 301 300 298 296 294 293 293 295 295 293 294 296
255 260 265 270 273 274 275 278 279 281 283 286 288 289 290 291 292 292 290 289 289 291 296 297 295 293 291 289 286 283 281 281 282 282 282 284 286 288 288 287 285 284 286 290 296 300 300 300 300 299 299 298 297 296 297 297 298 300 302 303 303 303 303 303 302 302 301 300 300 301 301 301 301 300 299 298 297 296 295 294 295 293 291 293 294
263 268 271 272 274 276 277 278 279 280 282 285 286 287 288 290 291 290 290 290 291 294 298 297 294 291 288 286 285 280 277 280 286 285 282 283 286 287 287 285 283 285 289 294 297 298 298 298 298 297 296 296 295 295 297 298 299 301 303 304 304 303 303 303 302 301 300 300 300 301 301 301 301 300 300 299 298 297 296 295 294 291 290 292 292
271 271 272 274 277 277 277 278 278 280 282 284 285 285 286 288 289 290 289 290 293 296 298 298 297 293 288 287 281 271 271 285 292 285 282 284 287 288 286 285 286 290 293 295 295 295 295 295 294 294 294 294 295 296 298 299 301 303 304 304 302 301 301 301 300 300 300 300 301 301 301 301 300 300 300 300 299 298 298 296 294 293 293 293 292
272 272 275 277 278 278 278 278 279 280 281 283 284 284 285 287 288 289 289 290 293 295 296 298 300 295 289 285 274 265 277 294 294 286 283 285 286 287 287 287 289 291 292 293 292 292 292 291 291 292 293 294 296 298 300 301 302 304 304 302 301 300 300 299 300 300 300 300 301 300 300 300 300 301 302 301 301 301 300 299 298 296 296 295 294
271 274 277 278 278 278 279 279 280 280 280 281 283 284 285 286 288 289 289 291 293 294 295 298 299 292 283 273 263 270 288 297 295 289 286 284 285 287 288 288 289 290 290 289 289 290 291 292 292 293 294 296 298 300 301 302 304 304 303 301 300 300 300 301 301 301 301 301 301 300 300 300 301 302 303 303 303 303 302 301 300 299 298 297 297
270 274 277 278 279 279 280 280 280 280 280 281 282 283 284 286 287 288 290 292 294 295 296 297 297 289 276 265 268 283 292 295 293 290 287 285 286 288 288 287 287 287 287 287 289 291 292 293 293 295 297 298 299 301 302 304 304 304 302 300 300 300 302 303 302 301 301 301 301 300 300 299 300 303 305 305 304 304 304 303 302 300 299 299 298
273 276 279 279 279 280 280 280 279 280 280 281 283 284 285 286 287 288 290 291 293 295 295 295 295 288 274 271 281 289 291 291 290 289 286 285 286 286 286 287 287 286 287 288 290 292 292 293 295 296 298 299 301 302 304 304 304 302 301 301 301 302 303 303 302 301 301 300 299 299 298 298 299 302 305 305 304 305 306 305 304 302 302 302 301
273 276 278 279 279 280 279 279 278 279 280 282 283 284 284 285 287 288 290 291 292 293 294 294 295 290 282 282 286 289 289 290 290 288 286 286 287 287 288 288 288 288 289 290 292 292 293 294 296 297 298 300 302 303 303 303 304 303 302 302 303 303 303 302 301 300 300 299 298 297 296 297 299 301 303 303 303 304 306 306 305 304 304 304 304
271 274 277 278 279 279 279 278 279 280 281 282 282 283 284 286 288 290 291 292 293 293 294 295 295 292 290 289 290 290 290 290 290 288 288 288 288 289 289 289 289 289 290 291 292 293 294 295 296 298 300 302 302 303 303 303 303 303 303 303 303 303 302 300 299 298 298 297 297 295 295 297 299 300 301 301 300 301 303 304 304 304 304 304 305
273 275 277 278 279 279 278 278 279 280 281 281 282 284 286 289 290 291 292 293 294 294 295 294 294 293 292 291 291 290 290 289 289 289 290 289 289 289 289 288 289 290 291 292 294 294 295 296 298 300 302 302 302 303 303 303 303 303 303 303 302 301 300 298 297 296 295 295 294 294 295 297 299 299 300 300 299 299 300 301 302 303 304 304 305
274 275 276 276 276 276 276 277 278 279 281 282 284 287 289 290 291 292 293 294 294 294 294 293 292 291 291 290 289 288 288 288 289 289 289 289 289 288 288 288 289 291 293 294 294 295 295 297 299 300 300 300 301 302 303 303 303 303 303 302 301 299 298 297 296 295 294 293 293 293 295 297 299 299 299 299 299 299 299 300 301 301 302 304 305
273 274 274 274 274 275 276 277 279 281 283 285 287 289 290 291 292 293 294 294 293 293 292 290 290 289 288 287 286 286 286 287 287 288 287 287 286 287 288 290 291 293 295 295 294 295 296 297 299 300 299 300 301 302 303 303 303 303 302 301 299 298 297 296 295 294 293 292 292 293 295 296 298 299 299 299 299 300 300 301 300 299 300 302 304
271 272 272 273 275 276 277 279 282 284 286 288 289 290 291 292 292 293 292 291 290 290 290 289 288 288 287 286 285 285 285 285 285 285 285 285 286 288 290 291 293 294 295 295 296 296 297 298 298 299 300 301 302 303 304 304 303 303 301 300 298 298 297 296 295 294 292 291 291 292 294 296 297 298 298 299 300 301 302 302 301 300 300 302 303
270 271 272 273 275 278 280 283 285 286 287 288 289 289 290 291 291 291 290 288 287 287 288 287 287 287 287 286 285 284 283 283 284 285 286 288 290 291 292 293 293 293 294 296 297 297 297 298 298 299 300 302 303 304 305 305 304 303 301 299 298 297 295 294 293 292 291 291 291 293 294 296 297 297 298 299 300 301 303 304 304 303 303 302 303
270 271 273 275 278 281 282 284 285 286 287 288 288 289 290 290 289 289 287 287 287 287 287 287 287 287 287 285 283 283 283 284 285 287 290 292 292 292 292 292 293 294 295 297 297 297 297 297 298 300 303 304 305 306 306 305 304 302 301 299 298 297 295 294 292 291 291 292 292 294 295 295 296 297 298 299 301 301 302 304 304 305 306 305 305
272 274 276 278 280 282 283 284 285 286 287 288 289 290 290 289 289 288 288 288 288 288 288 288 288 287 287 285 284 284 286 288 290 292 294 293 291 290 290 291 293 295 296 296 296 297 297 298 300 303 305 306 306 306 306 306 305 304 303 301 300 298 297 296 294 293 294 294 294 295 295 295 296 297 298 299 300 300 301 302 302 304 306 306 307
275 277 279 280 281 283 284 285 286 286 288 289 289 289 288 288 288 288 288 288 289 289 289 289 289 288 288 287 287 288 290 292 293 295 295 293 290 289 290 292 294 295 296 296 297 297 298 300 303 306 308 308 308 308 308 307 306 306 305 303 302 300 299 298 297 297 297 297 296 296 295 295 297 297 297 298 298 298 299 300 300 302 303 304 307
278 279 280 282 283 284 285 286 287 287 288 288 287 287 286 287 287 287 288 289 289 288 288 287 287 288 289 290 290 292 293 293 294 294 293 291 291 291 292 294 295 296 296 297 298 299 300 304 307 309 310 311 311 310 310 309 308 307 306 304 303 302 300 300 299 299 299 299 297 297 296 296 296 296 296 297 297 297 298 298 298 300 302 302 304
279 280 281 282 283 284 284 285 285 286 286 285 285 285 286 286 287 287 288 288 288 286 285 286 288 290 291 291 292 292 292 292 292 292 291 290 291 292 294 295 295 296 296 297 298 300 304 307 309 311 312 313 312 311 310 310 310 309 307 305 303 302 301 301 302 302 301 300 299 298 297 297 296 296 296 296 297 297 297 297 297 298 299 300 302
279 280 281 281 281 281 282 282 282 283 283 283 284 285 285 286 287 288 288 288 287 286 286 288 290 291 292 291 290 290 290 289 290 290 290 291 292 294 295 295 295 295 295 296 299 302 306 308 311 312 313 313 313 311 311 311 310 309 307 304 302 301 302 302 303 303 303 302 300 299 298 297 296 296 296 296 297 297 296 296 296 296 297 298 299
278 278 278 279 279 279 279 280 280 280 280 281 283 284 285 286 287 287 287 287 287 286 287 288 290 291 290 290 289 289 289 288 288 289 290 292 293 293 294 295 294 294 294 295 299 302 305 309 312 314 315 316 316 315 314 312 311 309 307 305 304 303 303 304 304 303 302 301 300 299 298 297 296 296 296 296 296 296 295 295 295 295 295 296 296
275 276 276 276 277 277 278 278 278 277 278 281 282 283 284 284 284 285 285 285 285 286 286 287 288 289 290 290 290 290 288 287 288 289 290 291 292 293 294 294 291 289 290 292 295 299 304 308 313 316 319 321 322 323 321 319 317 314 312 309 307 307 306 306 306 304 303 302 300 299 299 298 297 296 296 295 295 295 294 294 295 294 293 294 294
273 274 274 274 274 275 277 277 275 275 278 280 281 280 280 280 281 281 282 282 283 284 285 286 286 287 289 290 292 292 290 288 288 289 290 291 291 291 291 289 286 283 284 287 290 296 302 307 312 317 321 325 328 330 329 328 325 322 317 314 312 310 309 308 307 305 304 303 301 300 299 298 297 296 296 295 295 295 295 294 294 294 293 292 292
270 271 271 272 273 274 275 274 273 275 279 279 278 278 278 278 278 279 280 280 282 283 284 285 286 287 289 290 291 292 291 290 290 289 289 290 290 288 284 280 279 280 281 284 288 294 299 305 310 315 320 324 328 330 331 331 330 327 324 320 316 313 311 309 308 306 304 303 301 300 299 299 298 298 298 297 296 296 297 296 296 295 294 292 291
267 267 268 269 270 271 272 273 275 277 278 277 276 277 278 278 278 279 280 281 281 282 284 286 287 288 288 289 290 290 290 289 289 288 287 287 286 282 276 273 275 279 281 283 288 293 297 301 306 310 314 318 322 324 327 328 329 328 327 325 322 318 315 311 309 306 304 303 302 301 300 300 300 299 299 299 299 299 299 299 298 298 297 295 293
265 265 266 268 269 271 273 274 275 275 276 276 277 278 278 278 279 279 280 280 280 281 283 284 285 286 287 288 288 289 288 287 287 286 286 286 283 278 272 271 274 279 282 284 287 290 293 296 300 303 306 310 313 316 319 321 323 325 325 325 324 323 320 315 312 309 306 304 303 303 302 303 302 301 301 302 303 302 302 303 304 304 304 303 300
Height
5897 5896 5897 5899 5900 5900 5899 5899 5899 5899 5899 5899 5899 5899 5899 5899 5898 5898 5897 5896 5895 5894 5892 5891 5889 5887 5886 5884 5883 5882 5881 5879 5878 5878 5877 5876 5875 5874 5873 5872 5871 5870 5869 5869 5868 5867 5866 5865 5864 5863 5862 5861 5860 5859 5858 5857 5856 5855 5854 5853 5851 5850 5849 5848 5847 5845 5843 5840 5839 5837 5835 5833 5832 5830 5829 5827 5826 5825 5825 5824 5822 5821 5820 5819 5819
5895 5895 5896 5898 5898 5897 5897 5897 5897 5897 5897 5897 5898 5898 5897 5897 5896 5895 5894 5893 5892 5891 5888 5887 5886 5885 5883 5881 5879 5878 5876 5875 5874 5873 5872 5871 5871 5870 5869 5868 5867 5867 5865 5865 5864 5863 5863 5861 5860 5859 5859 5858 5857 5855 5854 5853 5852 5851 5850 5849 5847 5846 5844 5843 5842 5841 5839 5836 5834 5832 5831 5829 5828 5826 5824 5823 5821 5820 5819 5818 5816 5815 5814 5813 5812
5894 5894 5895 5896 5895 5895 5895 5896 5896 5896 5896 5896 5896 5896 5895 5894 5893 5892 5891 5890 5888 5887 5886 5884 5883 5881 5880 5878 5876 5874 5873 5871 5870 5869 5868 5867 5866 5866 5865 5864 5863 5863 5862 5861 5861 5860 5859 5858 5857 5856 5855 5854 5853 5852 5850 5849 5848 5846 5845 5844 5843 5842 5841 5839 5838 5836 5834 5832 5829 5827 5826 5824 5823 5822 5820 5818 5816 5814 5813 5812 5810 5809 5808 5806 5805
5893 5893 5893 5893 5893 5893 5894 5894 5894 5894 5895 5894 5893 5894 5893 5891 5890 5889 5888 5888 5886 5885 5883 5881 5879 5878 5877 5875 5873 5871 5870 5868 5867 5866 5864 5863 5862 5861 5861 5860 5859 5859 5858 5857 5857 5856 5855 5855 5853 5852 5851 5850 5849 5848 5846 5845 5843 5842 5841 5840 5839 5838 5837 5835 5833 5831 5830 5828 5826 5823 5821 5819 5818 5817 5816 5814 5812 5810 5808 5807 5805 5804 5802 5801 5799
5891 5891 5891 5891 5891 5892 5892 5893 5893 5893 5892 5892 5891 5891 5890 5889 5888 5886 5885 5885 5884 5882 5880 5878 5876 5875 5873 5871 5870 5869 5867 5865 5864 5863 5861 5860 5859 5858 5857 5856 5856 5855 5855 5854 5853 5852 5851 5851 5849 5848 5847 5846 5845 5844 5842 5841 5839 5838 5837 5836 5835 5833 5832 5830 5828 5826 5825 5823 5822 5819 5816 5814 5813 5812 5811 5810 5808 5807 5805 5802 5800 5799 5798 5796 5795
5890 5889 5889 5889 5889 5890 5891 5892 5891 5891 5890 5890 5889 5889 5888 5887 5886 5885 5883 5882 5881 5879 5878 5876 5874 5873 5871 5869 5868 5866 5864 5862 5860 5859 5858 5856 5855 5854 5853 5852 5852 5852 5851 5851 5850 5848 5848 5847 5845 5844 5843 5842 5841 5840 5838 5837 5835 5834 5833 5832 5830 5829 5827 5825 5823 5822 5820 5818 5816 5814 5811 5808 5807 5806 5805 5804 5802 5801 5799 5797 5795 5793 5792 5790 5790
5888 5887 5887 5888 5888 5889 5890 5890 5889 5889 5888 5888 5887 5886 5886 5885 5884 5883 5881 5880 5878 5877 5875 5874 5872 5870 5868 5867 5865 5863 5861 5859 5857 5855 5854 5853 5852 5851 5849 5848 5848 5848 5848 5847 5846 5845 5844 5843 5841 5840 5838 5837 5836 5835 5834 5833 5831 5829 5828 5827 5826 5824 5823 5820 5818 5817 5814 5812 5810 5808 5806 5804 5802 5801 5799 5798 5796 5794 5793 5791 5789 5788 5786 5784 5783
5885 5885 5885 5886 5887 5888 5888 5887 5887 5887 5886 5886 5885 5884 5883 5882 5881 5880 5879 5877 5876 5874 5873 5871 5869 5867 5865 5863 5861 5859 5857 5855 5854 5852 5850 5848 5848 5847 5846 5845 5844 5844 5844 5843 5842 5841 5839 5838 5837 5835 5834 5833 5831 5830 5829 5828 5827 5825 5823 5822 5821 5819 5817 5815 5813 5811 5809 5807 5805 5803 5801 5799 5798 5795 5793 5791 5789 5787 5785 5784 5782 5781 5780 5778 5776
5883 5883 5884 5884 5885 5885 5885 5885 5885 5885 5884 5884 5882 5881 5880 5879 5878 5877 5876 5874 5873 5871 5869 5867 5865 5863 5861 5859 5857 5855 5853 5852 5850 5848 5846 5844 5844 5843 5842 5841 5840 5840 5839 5838 5837 5836 5835 5833 5832 5831 5830 5828 5827 5826 5825 5824 5822 5821 5819 5817 5816 5814 5813 5811 5808 5806 5804 5801 5799 5797 5796 5794 5792 5789 5787 5784 5782 5780 5778 5777 5776 5774 5773 5771 5770
5880 5881 5881 5882 5882 5882 5882 5881 5881 5881 5881 5881 5880 5879 5877 5876 5875 5874 5872 5870 5869 5868 5866 5864 5862 5860 5857 5855 5853 5851 5850 5848 5846 5844 5842 5840 5840 5840 5839 5838 5837 5836 5835 5834 5833 5832 5830 5829 5827 5826 5825 5824 5822 5821 5820 5819 5818 5816 5814 5812 5811 5809 5808 5806 5803 5801 5799 5796 5794 5792 5790 5788 5786 5783 5780 5778 5776 5773 5772 5770 5769 5768 5766 5764 5763
5878 5878 5879 5879 5879 5879 5878 5878 5877 5877 5877 5877 5877 5876 5875 5874 5872 5870 5869 5867 5865 5864 5862 5860 5858 5856 5854 5851 5849 5848 5847 5844 5842 5840 5837 5835 5835 5835 5835 5834 5833 5832 5830 5829 5828 5827 5826 5824 5823 5822 5821 5820 5818 5817 5816 5815 5813 5811 5810 5808 5806 5804 5803 5801 5798 5795 5793 5791 5789 5786 5784 5783 5780 5777 5774 5772 5769 5767 5765 5763 5762 5761 5759 5757 5756
5875 5875 5876 5876 5876 5876 5875 5875 5874 5873 5872 5872 5873 5872 5871 5870 5869 5867 5865 5863 5861 5860 5858 5855 5853 5852 5850 5847 5845 5844 5843 5841 5838 5836 5833 5831 5830 5830 5829 5829 5828 5827 5826 5825 5824 5823 5822 5820 5819 5817 5816 5815 5814 5813 5812 5810 5809 5807 5805 5803 5801 5799 5797 5795 5793 5789 5787 5785 5784 5782 5779 5777 5774 5771 5768 5766 5763 5760 5758 5756 5755 5754 5753 5751 5748
5872 5872 5873 5873 5873 5873 5872 5872 5871 5870 5870 5869 5868 5868 5867 5866 5865 5863 5861 5859 5857 5856 5854 5851 5849 5847 5845 5844 5841 5839 5838 5837 5834 5832 5829 5827 5826 5825 5824 5824 5824 5824 5822 5821 5819 5818 5817 5816 5814 5813 5812 5811 5809 5809 5808 5806 5805 5803 5800 5798 5797 5794 5791 5789 5786 5784 5781 5779 5778 5776 5774 5771 5768 5766 5762 5759 5756 5754 5752 5750 5749 5748 5746 5744 5741
5869 5869 5869 5870 5870 5870 5869 5869 5868 5867 5867 5866 5865 5864 5863 5861 5860 5858 5857 5855 5853 5852 5849 5847 5845 5842 5840 5839 5837 5835 5834 5832 5830 5828 5825 5823 5821 5821 5820 5821 5820 5819 5818 5816 5815 5813 5812 5811 5810 5809 5808 5806 5805 5804 5803 5802 5801 5800 5796 5793 5790 5788 5785 5782 5779 5777 5775 5773 5772 5769 5767 5764 5762 5759 5756 5752 5750 5748 5746 5744 5743 5741 5740 5737 5735
5865 5865 5866 5866 5866 5866 5865 5865 5864 5864 5863 5862 5861 5860 5858 5857 5856 5854 5852 5850 5849 5847 5845 5843 5840 5838 5835 5834 5832 5831 5830 5828 5826 5824 5821 5818 5817 5816 5816 5816 5816 5814 5813 5811 5810 5809 5808 5807 5806 5804 5803 5802 5800 5799 5798 5797 5797 5796 5793 5789 5785 5783 5780 5776 5774 5771 5768 5766 5764 5762 5760 5758 5755 5753 5750 5746 5743 5741 5739 5738 5737 5735 5733 5731 5729
5862 5862 5862 5862 5862 5862 5861 5861 5860 5859 5859 5858 5856 5855 5853 5852 5851 5849 5847 5845 5843 5842 5841 5838 5836 5833 5831 5829 5828 5827 5825 5823 5821 5819 5816 5813 5811 5811 5811 5811 5811 5809 5808 5806 5805 5804 5803 5802 5801 5800 5798 5797 5795 5793 5792 5792 5792 5791 5789 5786 5782 5778 5775 5772 5769 5766 5763 5760 5759 5757 5754 5751 5749 5746 5744 5740 5738 5736 5734 5732 5730 5728 5726 5724 5722
5858 5858 5858 5858 5858 5858 5857 5857 5856 5855 5854 5853 5852 5850 5849 5847 5845 5844 5842 5839 5837 5836 5835 5833 5830 5828 5826 5824 5823 5822 5819 5817 5815 5814 5811 5808 5806 5805 5805 5805 5806 5804 5802 5801 5800 5799 5799 5798 5796 5795 5793 5791 5790 5788 5786 5786 5785 5783 5782 5780 5776 5773 5770 5767 5763 5761 5758 5755 5752 5750 5748 5745 5742 5739 5737 5734 5732 5730 5728 5726 5724 5722 5719 5718 5716
5855 5855 5854 5854 5854 5854 5853 5853 5851 5850 5850 5848 5847 5845 5844 5842 5840 5839 5837 5835 5832 5830 5828 5827 5824 5821 5819 5818 5817 5816 5813 5811 5810 5809 5806 5803 5801 5800 5799 5800 5800 5798 5797 5796 5795 5794 5794 5793 5791 5789 5788 5786 5785 5783 5782 5780 5778 5776 5774 5772 5770 5767 5765 5761 5757 5754 5752 5748 5745 5742 5740 5738 5735 5733 5731 5728 5726 5724 5722 5720 5718 5715 5713 5711 5709
5851 5850 5850 5850 5849 5849 5849 5848 5848 5847 5845 5844 5842 5841 5839 5836 5835 5833 5832 5830 5828 5824 5822 5820 5818 5815 5813 5812 5810 5809 5807 5806 5805 5803 5801 5799 5797 5795 5794 5795 5795 5794 5793 5792 5790 5789 5788 5787 5786 5784 5782 5781 5780 5779 5777 5774 5772 5769 5767 5765 5763 5761 5758 5755 5751 5749 5746 5743 5740 5736 5734 5731 5729 5727 5725 5723 5720 5718 5716 5714 5712 5709 5707 5705 5703
5846 5846 5845 5845 5844 5844 5844 5844 5843 5842 5841 5839 5837 5835 5834 5832 5829 5828 5826 5825 5822 5819 5815 5813 5812 5810 5809 5807 5806 5805 5803 5801 5800 5798 5797 5796 5793 5789 5789 5791 5791 5791 5789 5786 5784 5784 5783 5782 5781 5780 5777 5775 5775 5773 5771 5767 5765 5762 5760 5758 5756 5754 5751 5748 5745 5743 5740 5737 5734 5731 5728 5726 5723 5721 5720 5717 5715 5712 5710 5708 5706 5704 5701 5699 5697
5840 5839 5839 5839 5839 5839 5839 5839 5838 5837 5835 5833 5831 5829 5828 5826 5824 5822 5821 5818 5816 5813 5810 5808 5807 5806 5804 5803 5801 5800 5798 5797 5795 5794 5793 5792 5789 5786 5787 5788 5788 5788 5786 5783 5780 5780 5779 5777 5777 5776 5773 5770 5768 5766 5763 5761 5758 5756 5754 5752 5749 5747 5744 5741 5739 5736 5733 5730 5728 5725 5722 5720 5718 5716 5714 5712 5709 5707 5704 5702 5700 5698 5696 5694 5692
5833 5833 5833 5833 5833 5834 5834 5833 5832 5831 5830 5828 5826 5824 5821 5819 5817 5816 5814 5812 5810 5808 5805 5802 5802 5802 5799 5798 5796 5795 5793 5792 5791 5789 5788 5787 5785 5783 5783 5783 5783 5783 5782 5780 5777 5775 5774 5773 5771 5770 5767 5764 5762 5759 5757 5755 5752 5750 5748 5745 5743 5740 5737 5734 5731 5729 5726 5724 5722 5719 5717 5715 5712 5710 5708 5706 5704 5701 5699 5697 5694 5692 5691 5688 5686
5829 5828 5827 5827 5828 5829 5828 5827 5827 5826 5824 5822 5820 5818 5816 5813 5811 5809 5807 5805 5803 5802 5800 5797 5796 5796 5794 5793 5792 5790 5788 5787 5786 5784 5782 5781 5780 5779 5778 5779 5779 5777 5776 5774 5771 5769 5768 5767 5765 5763 5760 5758 5756 5753 5751 5749 5746 5744 5741 5739 5736 5733 5730 5727 5725 5722 5720 5718 5716 5714 5712 5709 5707 5705 5703 5701 5699 5696 5694 5692 5690 5688 5686 5684 5681
5824 5823 5823 5823 5824 5823 5822 5821 5821 5820 5818 5816 5814 5813 5810 5808 5805 5803 5801 5798 5797 5796 5795 5793 5791 5790 5789 5788 5787 5785 5783 5782 5780 5779 5777 5776 5775 5775 5774 5773 5773 5772 5770 5768 5766 5765 5763 5761 5759 5757 5754 5752 5750 5748 5745 5743 5740 5738 5735 5733 5730 5727 5724 5721 5718 5716 5714 5712 5710 5708 5706 5704 5702 5699 5697 5695 5693 5691 5689 5687 5685 5683 5681 5679 5676
5817 5816 5817 5818 5819 5817 5816 5815 5815 5814 5812 5810 5809 5807 5805 5803 5801 5798 5796 5794 5792 5790 5789 5788 5787 5785 5784 5783 5781 5779 5777 5776 5774 5773 5772 5771 5771 5770 5769 5769 5768 5767 5765 5764 5762 5760 5757 5755 5753 5751 5749 5746 5744 5742 5740 5737 5735 5732 5730 5727 5723 5720 5717 5715 5712 5711 5709 5707 5705 5703 5701 5699 5696 5694 5692 5690 5688 5686 5684 5682 5680 5678 5676 5674 5672
5811 5811 5812 5813 5813 5812 5810 5809 5809 5808 5806 5805 5803 5802 5800 5798 5796 5794 5792 5790 5787 5785 5784 5784 5783 5781 5779 5777 5775 5774 5773 5771 5770 5769 5769 5768 5767 5766 5765 5765 5763 5762 5760 5759 5757 5755 5752 5749 5747 5745 5743 5741 5738 5736 5734 5732 5729 5727 5724 5720 5717 5713 5711 5709 5707 5705 5704 5702 5700 5698 5696 5694 5691 5689 5687 5685 5683 5681 5679 5677 5675 5673 5671 5669 5668
5807 5808 5808 5808 5807 5806 5805 5804 5803 5802 5801 5799 5798 5796 5794 5793 5791 5789 5787 5785 5782 5780 5779 5778 5777 5775 5774 5773 5770 5768 5768 5767 5767 5766 5766 5765 5763 5762 5761 5760 5758 5756 5755 5753 5751 5749 5747 5744 5741 5738 5736 5735 5732 5730 5729 5726 5723 5720 5717 5714 5711 5707 5705 5704 5702 5701 5699 5697 5695 5693 5691 5689 5686 5684 5682 5680 5678 5676 5674 5672 5671 5669 5666 5664 5663
5803 5803 5803 5802 5801 5800 5799 5798 5797 5796 5796 5794 5792 5790 5789 5788 5786 5784 5782 5780 5777 5775 5774 5773 5771 5770 5768 5767 5764 5763 5763 5764 5764 5762 5761 5759 5758 5756 5755 5754 5752 5751 5749 5747 5745 5743 5741 5738 5735 5732 5730 5728 5726 5724 5722 5720 5717 5714 5711 5708 5705 5703 5701 5699 5698 5696 5695 5692 5691 5688 5686 5684 5682 5679 5677 5675 5673 5671 5669 5667 5666 5664 5662 5660 5659
5797 5797 5797 5796 5795 5794 5793 5792 5791 5791 5791 5789 5787 5785 5784 5782 5781 5779 5777 5775 5773 5771 5770 5769 5767 5766 5764 5762 5760 5759 5759 5758 5758 5756 5754 5753 5752 5751 5749 5748 5747 5745 5743 5741 5738 5736 5734 5732 5730 5727 5724 5722 5720 5718 5716 5713 5711 5708 5705 5702 5700 5698 5697 5695 5694 5692 5690 5688 5686 5684 5682 5680 5677 5675 5673 5671 5669 5667 5665 5663 5661 5659 5657 5656 5655
5792 5791 5790 5790 5789 5788 5788 5787 5786 5785 5785 5783 5781 5780 5779 5777 5775 5773 5771 5769 5768 5767 5766 5765 5764 5762 5759 5758 5757 5756 5754 5753 5751 5750 5748 5747 5747 5746 5745 5743 5741 5740 5737 5734 5732 5730 5728 5726 5723 5721 5719 5716 5714 5711 5709 5706 5704 5702 5700 5698 5695 5694 5693 5692 5690 5688 5685 5684 5682 5680 5677 5675 5673 5671 5669 5667 5665 5663 5661 5659 5657 5655 5654 5653 5651
5785 5785 5784 5784 5783 5783 5782 5781 5780 5779 5778 5776 5775 5774 5773 5772 5770 5767 5765 5764 5763 5761 5761 5760 5759 5757 5755 5754 5753 5752 5750 5748 5746 5745 5743 5742 5741 5741 5740 5738 5736 5734 5731 5728 5726 5724 5722 5719 5716 5714 5712 5710 5708 5706 5703 5700 5698 5696 5694 5693 5691 5690 5688 5687 5685 5683 5681 5679 5677 5675 5673 5671 5669 5667 5665 5663 5661 5659 5657 5656 5654 5652 5651 5649 5648
5779 5779 5778 5778 5777 5777 5776 5775 5774 5773 5772 5771 5769 5768 5767 5766 5764 5761 5760 5759 5757 5756 5755 5755 5754 5753 5752 5750 5749 5747 5745 5743 5742 5740 5739 5738 5736 5735 5734 5732 5730 5728 5725 5723 5721 5718 5716 5713 5711 5709 5707 5704 5702 5700 5697 5694 5692 5691 5689 5688 5687 5685 5684 5683 5680 5678 5676 5675 5673 5670 5669 5667 5665 5663 5662 5660 5658 5656 5654 5653 5651 5649 5648 5646 5645
5773 5773 5773 5772 5771 5771 5770 5769 5768 5767 5766 5765 5764 5763 5761 5760 5758 5756 5754 5753 5752 5751 5750 5749 5749 5748 5747 5746 5744 5742 5740 5738 5737 5735 5734 5732 5730 5729 5727 5725 5723 5721 5719 5717 5715 5712 5710 5707 5705 5702 5701 5699 5697 5695 5692 5690 5688 5686 5685 5684 5682 5681 5679 5678 5676 5674 5672 5670 5668 5666 5665 5663 5661 5660 5658 5656 5655 5653 5652 5650 5648 5646 5645 5644 5642
5767 5767 5767 5766 5765 5764 5764 5763 5762 5761 5761 5759 5758 5756 5755 5754 5752 5750 5748 5747 5746 5745 5744 5743 5742 5741 5740 5739 5737 5735 5734 5732 5731 5729 5728 5726 5724 5722 5720 5719 5717 5715 5714 5712 5709 5707 5704 5702 5699 5697 5695 5693 5691 5689 5687 5686 5684 5683 5681 5680 5678 5676 5675 5673 5671 5669 5667 5666 5664 5663 5661 5659 5658 5656 5655 5653 5652 5650 5649 5647 5646 5644 5642 5641 5640
5761 5761 5760 5760 5759 5758 5758 5757 5756 5756 5755 5753 5752 5750 5749 5747 5746 5744 5743 5742 5741 5739 5738 5737 5736 5734 5733 5732 5730 5729 5728 5726 5725 5723 5721 5719 5717 5716 5714 5713 5711 5710 5708 5707 5704 5701 5698 5696 5694 5692 5690 5688 5686 5685 5683 5681 5680 5679 5677 5676 5674 5672 5670 5668 5667 5665 5664 5662 5660 5659 5657 5656 5654 5652 5651 5650 5649 5647 5646 5644 5642 5641 5639 5638 5637
5755 5755 5754 5754 5753 5752 5751 5751 5750 5750 5748 5747 5746 5744 5743 5741 5740 5739 5738 5736 5735 5733 5732 5730 5729 5728 5727 5725 5724 5723 5721 5720 5719 5717 5715 5713 5712 5710 5709 5707 5705 5704 5703 5701 5699 5696 5693 5691 5689 5688 5686 5684 5682 5681 5679 5677 5676 5674 5673 5671 5669 5667 5666 5664 5663 5661 5660 5658 5656 5655 5653 5652 5650 5649 5648 5647 5645 5644 5643 5641 5639 5638 5637 5635 5634
5749 5749 5748 5748 5747 5746 5745 5745 5744 5743 5742 5741 5739 5738 5736 5735 5734 5733 5732 5730 5729 5727 5726 5724 5723 5722 5721 5719 5718 5717 5716 5714 5713 5711 5709 5708 5706 5705 5703 5701 5699 5698 5697 5696 5694 5692 5689 5686 5685 5683 5682 5680 5678 5676 5675 5673 5672 5670 5668 5666 5664 5663 5661 5660 5658 5657 5656 5654 5653 5651 5650 5648 5647 5646 5645 5644 5642 5641 5640 5638 5637 5635 5634 5633 5632
5743 5743 5743 5742 5741 5740 5739 5739 5738 5736 5735 5734 5733 5732 5730 5729 5728 5727 5726 5724 5723 5721 5720 5718 5717 5716 5715 5714 5713 5712 5710 5708 5707 5705 5704 5702 5701 5699 5697 5696 5694 5692 5690 5689 5688 5686 5684 5682 5681 5679 5677 5676 5674 5672 5671 5669 5667 5665 5663 5662 5660 5658 5657 5655 5654 5653 5652 5650 5649 5648 5646 5645 5644 5643 5642 5641 5640 5638 5637 5636 5634 5633 5631 5630 5629
5737 5737 5737 5737 5736 5734 5733 5732 5731 5729 5728 5727 5727 5726 5724 5723 5722 5721 5720 5719 5717 5716 5715 5713 5711 5711 5710 5709 5707 5705 5704 5702 5701 5700 5699 5697 5695 5693 5692 5690 5689 5687 5685 5684 5683 5681 5679 5678 5677 5675 5673 5672 5670 5668 5666 5665 5663 5661 5659 5657 5656 5655 5653 5652 5651 5649 5648 5647 5646 5644 5643 5642 5641 5640 5639 5638 5637 5636 5634 5633 5632 5630 5629 5627 5626
5731 5731 5731 5731 5730 5728 5726 5725 5724 5723 5722 5721 5720 5719 5718 5717 5716 5715 5714 5713 5711 5710 5709 5708 5706 5705 5704 5703 5701 5699 5698 5697 5696 5695 5694 5692 5690 5688 5686 5685 5683 5682 5681 5680 5678 5677 5676 5674 5673 5671 5670 5668 5666 5664 5662 5661 5659 5657 5656 5654 5652 5651 5649 5648 5647 5646 5645 5643 5642 5641 5640 5639 5638 5637 5636 5635 5634 5633 5632 5631 5629 5628 5626 5625 5624
5725 5725 5724 5724 5723 5721 5720 5719 5718 5717 5716 5715 5714 5713 5711 5710 5709 5708 5707 5706 5704 5703 5702 5701 5700 5699 5698 5697 5695 5693 5692 5691 5690 5689 5688 5687 5685 5683 5682 5680 5679 5678 5677 5676 5675 5673 5672 5670 5669 5668 5666 5664 5662 5661 5659 5657 5655 5653 5652 5650 5649 5647 5646 5645 5644 5643 5641 5640 5639 5638 5637 5636 5635 5635 5634 5633 5632 5631 5630 5628 5627 5626 5624 5623 5621
5718 5718 5718 5717 5716 5715 5714 5713 5712 5711 5710 5709 5708 5707 5706 5704 5703 5702 5700 5699 5698 5697 5696 5695 5694 5693 5692 5692 5690 5689 5687 5685 5684 5683 5682 5681 5679 5678 5677 5676 5675 5674 5673 5672 5671 5670 5668 5667 5665 5664 5663 5661 5659 5657 5655 5653 5651 5650 5648 5647 5646 5644 5643 5642 5641 5640 5638 5637 5636 5635 5634 5634 5633 5632 5631 5630 5629 5628 5627 5626 5625 5624 5622 5621 5619
5712 5712 5711 5711 5710 5709 5708 5707 5706 5705 5705 5704 5703 5702 5701 5699 5698 5696 5695 5694 5693 5692 5690 5689 5689 5689 5688 5686 5685 5684 5682 5680 5679 5678 5677 5675 5674 5674 5673 5672 5671 5670 5669 5668 5667 5666 5665 5663 5662 5661 5659 5658 5656 5653 5651 5650 5648 5647 5645 5644 5643 5641 5640 5639 5638 5637 5636 5635 5634 5633 5632 5631 5630 5629 5628 5627 5627 5626 5625 5624 5623 5621 5620 5618 5617
5706 5705 5705 5704 5704 5703 5702 5701 5701 5700 5699 5698 5697 5696 5695 5694 5693 5691 5690 5689 5688 5687 5685 5684 5684 5684 5683 5681 5679 5678 5677 5675 5673 5673 5672 5671 5670 5670 5669 5668 5668 5667 5665 5664 5663 5662 5661 5660 5659 5658 5656 5654 5652 5650 5648 5647 5645 5644 5643 5641 5640 5639 5638 5637 5636 5634 5633 5632 5631 5630 5629 5628 5627 5627 5626 5625 5624 5623 5622 5621 5620 5619 5618 5616 5615
5699 5699 5699 5698 5697 5697 5696 5696 5696 5695 5693 5692 5691 5690 5689 5688 5687 5686 5685 5684 5683 5682 5681 5679 5679 5679 5678 5676 5674 5673 5672 5670 5669 5669 5668 5667 5667 5666 5665 5665 5664 5663 5662 5661 5660 5659 5658 5658 5656 5655 5653 5651 5649 5647 5645 5644 5642 5641 5640 5639 5638 5637 5635 5634 5633 5632 5631 5630 5629 5628 5627 5626 5625 5624 5623 5622 5621 5620 5620 5619 5618 5617 5616 5614 5613
5693 5693 5692 5692 5691 5691 5690 5690 5690 5689 5688 5687 5686 5685 5683 5682 5682 5681 5680 5679 5678 5677 5676 5675 5674 5673 5673 5671 5669 5668 5667 5666 5665 5665 5664 5664 5663 5663 5662 5662 5661 5660 5659 5658 5657 5657 5656 5655 5654 5652 5651 5649 5647 5645 5643 5642 5640 5639 5638 5637 5635 5634 5633 5632 5631 5629 5628 5627 5626 5625 5624 5623 5622 5621 5620 5619 5618 5617 5617 5616 5615 5614 5613 5612 5611
5688 5687 5686 5685 5685 5685 5685 5685 5684 5683 5682 5681 5681 5680 5678 5677 5677 5676 5675 5674 5673 5672 5671 5670 5669 5669 5668 5667 5665 5664 5663 5662 5661 5661 5661 5661 5660 5659 5659 5658 5657 5657 5656 5656 5655 5654 5654 5652 5651 5650 5648 5646 5645 5643 5642 5640 5638 5637 5636 5634 5633 5632 5630 5629 5628 5627 5626 5624 5623 5622 5621 5620 5619 5618 5617 5616 5615 5614 5613 5613 5612 5611 5610 5609 5608
5682 5682 5681 5680 5680 5680 5680 5679 5678 5678 5677 5676 5676 5675 5674 5673 5672 5671 5670 5669 5668 5667 5666 5665 5665 5664 5663 5662 5661 5660 5659 5659 5658 5657 5657 5657 5657 5656 5655 5654 5654 5654 5654 5653 5653 5652 5651 5650 5649 5647 5646 5644 5643 5641 5640 5638 5637 5635 5633 5632 5631 5629 5628 5627 5625 5624 5623 5622 5621 5620 5618 5617 5616 5615 5614 5613 5612 5611 5610 5609 5609 5608 5607 5606 5606
5677 5676 5676 5675 5675 5675 5674 5673 5673 5672 5672 5671 5671 5670 5669 5668 5667 5666 5666 5665 5664 5662 5661 5661 5660 5660 5659 5658 5657 5657 5656 5656 5655 5654 5654 5653 5653 5653 5652 5652 5651 5651 5651 5651 5650 5649 5648 5647 5646 5645 5644 5643 5641 5640 5638 5636 5635 5633 5632 5630 5629 5627 5626 5625 5623 5622 5621 5619 5618 5617 5616 5614 5613 5612 5611 5610 5609 5608 5607 5606 5606 5605 5604 5603 5603
5672 5672 5671 5670 5670 5669 5669 5668 5667 5667 5667 5666 5666 5665 5664 5663 5662 5661 5661 5660 5659 5658 5657 5656 5656 5655 5655 5654 5654 5653 5653 5652 5651 5651 5650 5650 5649 5649 5649 5649 5648 5648 5648 5648 5647 5646 5645 5645 5644 5643 5642 5640 5639 5638 5636 5635 5633 5631 5630 5628 5627 5625 5624 5622 5621 5620 5618 5617 5616 5614 5613 5612 5610 5609 5608 5607 5606 5606 5605 5604 5603 5602 5602 5601 5600
5667 5667 5666 5666 5665 5664 5664 5664 5663 5662 5662 5661 5661 5660 5659 5658 5657 5657 5656 5655 5655 5654 5653 5652 5652 5651 5651 5651 5650 5650 5649 5648 5648 5647 5647 5646 5646 5646 5646 5646 5646 5645 5645 5645 5644 5643 5643 5642 5641 5640 5639 5638 5637 5636 5634 5633 5631 5630 5628 5627 5625 5624 5622 5620 5619 5617 5616 5615 5613 5612 5611 5609 5608 5607 5606 5605 5604 5604 5603 5602 5602 5601 5600 5599 5598